Time,TemperatureF,DewpointF,PressureIn,WindDirection,WindDirectionDegrees,WindSpeedMPH,WindSpeedGustMPH,Humidity,HourlyPrecipIn,Conditions,Clouds,dailyrainin,SoftwareType,DateUTC
2013-03-10 00:02:00,49.0,-99.9,-100.00,East,80,2.0,3.0,-999,-99.99,,,-99.99,,2013-03-10 05:02:00,
2013-03-10 00:11:00,49.0,-99.9,-100.00,East,80,2.0,3.0,-999,-99.99,,,-99.99,,2013-03-10 05:11:00,
2013-03-10 00:22:00,49.0,-99.9,-100.00,East,80,2.0,3.0,-999,-99.99,,,-99.99,,2013-03-10 05:22:00,
2013-03-10 00:32:00,49.0,-99.9,-100.00,East,80,2.0,3.0,-999,-99.99,,,-99.99,,2013-03-10 05:32:00,
2013-03-10 00:40:00,44.0,-99.9,-100.00,SSW,210,2.0,5.0,-999,-99.99,,,-99.99,,2013-03-10 05:40:00,
2013-03-10 01:02:00,44.0,-99.9,-100.00,SSW,210,2.0,5.0,-999,-99.99,,,-99.99,,2013-03-10 06:02:00,
2013-03-10 01:11:00,44.0,-99.9,-100.00,SSW,210,2.0,5.0,-999,-99.99,,,-99.99,,2013-03-10 06:11:00,
2013-03-10 01:22:00,44.0,-99.9,-100.00,SSW,210,2.0,5.0,-999,-99.99,,,-99.99,,2013-03-10 06:22:00,
2013-03-10 01:32:00,44.0,-99.9,-100.00,SSW,210,2.0,5.0,-999,-99.99,,,-99.99,,2013-03-10 06:32:00,
2013-03-10 01:40:00,43.0,-99.9,-100.00,South,170,2.0,3.0,-999,-99.99,,,-99.99,,2013-03-10 06:40:00,
2013-03-10 03:02:00,43.0,-99.9,-100.00,South,170,2.0,3.0,-999,-99.99,,,-99.99,,2013-03-10 07:02:00,
2013-03-10 03:11:00,43.0,-99.9,-100.00,South,170,2.0,3.0,-999,-99.99,,,-99.99,,2013-03-10 07:11:00,
2013-03-10 03:21:00,43.0,-99.9,-100.00,South,170,2.0,3.0,-999,-99.99,,,-99.99,,2013-03-10 07:21:00,
2013-03-10 03:32:00,43.0,-99.9,-100.00,South,170,2.0,3.0,-999,-99.99,,,-99.99,,2013-03-10 07:32:00,
2013-03-10 03:40:00,42.0,-99.9,-100.00,South,170,1.0,2.0,-999,-99.99,,,-99.99,,2013-03-10 07:40:00,
2013-03-10 04:02:00,42.0,-99.9,-100.00,South,170,1.0,2.0,-999,-99.99,,,-99.99,,2013-03-10 08:02:00,
2013-03-10 04:12:00,42.0,-99.9,-100.00,South,170,1.0,2.0,-999,-99.99,,,-99.99,,2013-03-10 08:12:00,
2013-03-10 04:21:00,42.0,-99.9,-100.00,South,170,1.0,2.0,-999,-99.99,,,-99.99,,2013-03-10 08:21:00,
2013-03-10 04:32:00,42.0,-99.9,-100.00,South,170,1.0,2.0,-999,-99.99,,,-99.99,,2013-03-10 08:32:00,
2013-03-10 04:40:00,42.0,-99.9,-100.00,ESE,120,1.0,2.0,-999,-99.99,,,-99.99,,2013-03-10 08:40:00,
2013-03-10 05:02:00,42.0,-99.9,-100.00,ESE,120,1.0,2.0,-999,-99.99,,,-99.99,,2013-03-10 09:02:00,
2013-03-10 05:11:00,42.0,-99.9,-100.00,ESE,120,1.0,2.0,-999,-99.99,,,-99.99,,2013-03-10 09:11:00,
2013-03-10 05:21:00,42.0,-99.9,-100.00,ESE,120,1.0,2.0,-999,-99.99,,,-99.99,,2013-03-10 09:21:00,
2013-03-10 05:32:00,42.0,-99.9,-100.00,ESE,120,1.0,2.0,-999,-99.99,,,-99.99,,2013-03-10 09:32:00,
2013-03-10 05:40:00,40.0,-99.9,-100.00,North,0,0.0,3.0,-999,-99.99,,,-99.99,,2013-03-10 09:40:00,
2013-03-10 06:02:00,40.0,-99.9,-100.00,North,0,0.0,3.0,-999,-99.99,,,-99.99,,2013-03-10 10:02:00,
2013-03-10 06:11:00,40.0,-99.9,-100.00,North,0,0.0,3.0,-999,-99.99,,,-99.99,,2013-03-10 10:11:00,
2013-03-10 06:22:00,40.0,-99.9,-100.00,North,0,0.0,3.0,-999,-99.99,,,-99.99,,2013-03-10 10:22:00,
2013-03-10 06:32:00,40.0,-99.9,-100.00,North,0,0.0,3.0,-999,-99.99,,,-99.99,,2013-03-10 10:32:00,
2013-03-10 06:40:00,43.0,-99.9,-100.00,ESE,110,3.0,7.0,-999,-99.99,,,-99.99,,2013-03-10 10:40:00,
2013-03-10 07:02:00,43.0,-99.9,-100.00,ESE,110,3.0,7.0,-999,-99.99,,,-99.99,,2013-03-10 11:02:00,
2013-03-10 07:12:00,43.0,-99.9,-100.00,ESE,110,3.0,7.0,-999,-99.99,,,-99.99,,2013-03-10 11:12:00,
2013-03-10 07:22:00,43.0,-99.9,-100.00,ESE,110,3.0,7.0,-999,-99.99,,,-99.99,,2013-03-10 11:22:00,
2013-03-10 07:32:00,43.0,-99.9,-100.00,ESE,110,3.0,7.0,-999,-99.99,,,-99.99,,2013-03-10 11:32:00,
2013-03-10 07:40:00,44.0,-99.9,-100.00,North,0,0.0,2.0,-999,-99.99,,,-99.99,,2013-03-10 11:40:00,
2013-03-10 08:02:00,44.0,-99.9,-100.00,North,0,0.0,2.0,-999,-99.99,,,-99.99,,2013-03-10 12:02:00,
2013-03-10 08:11:00,44.0,-99.9,-100.00,North,0,0.0,2.0,-999,-99.99,,,-99.99,,2013-03-10 12:11:00,
2013-03-10 08:21:00,44.0,-99.9,-100.00,North,0,0.0,2.0,-999,-99.99,,,-99.99,,2013-03-10 12:21:00,
2013-03-10 08:32:00,44.0,-99.9,-100.00,North,0,0.0,2.0,-999,-99.99,,,-99.99,,2013-03-10 12:32:00,
2013-03-10 08:40:00,45.0,-99.9,-100.00,West,260,2.0,2.0,-999,-99.99,,,-99.99,,2013-03-10 12:40:00,
2013-03-10 09:01:00,45.0,-99.9,-100.00,West,260,2.0,2.0,-999,-99.99,,,-99.99,,2013-03-10 13:01:00,
2013-03-10 09:11:00,45.0,-99.9,-100.00,West,260,2.0,2.0,-999,-99.99,,,-99.99,,2013-03-10 13:11:00,
2013-03-10 09:21:00,45.0,-99.9,-100.00,West,260,2.0,2.0,-999,-99.99,,,-99.99,,2013-03-10 13:21:00,
2013-03-10 09:32:00,45.0,-99.9,-100.00,West,260,2.0,2.0,-999,-99.99,,,-99.99,,2013-03-10 13:32:00,
2013-03-10 09:40:00,48.0,-99.9,-100.00,North,360,6.0,6.0,-999,-99.99,,,-99.99,,2013-03-10 13:40:00,
2013-03-10 10:02:00,48.0,-99.9,-100.00,North,360,6.0,6.0,-999,-99.99,,,-99.99,,2013-03-10 14:02:00,
2013-03-10 10:12:00,48.0,-99.9,-100.00,North,360,6.0,6.0,-999,-99.99,,,-99.99,,2013-03-10 14:12:00,
2013-03-10 10:22:00,48.0,-99.9,-100.00,North,360,6.0,6.0,-999,-99.99,,,-99.99,,2013-03-10 14:22:00,
2013-03-10 10:32:00,48.0,-99.9,-100.00,North,360,6.0,6.0,-999,-99.99,,,-99.99,,2013-03-10 14:32:00,
2013-03-10 10:40:00,54.0,-99.9,-100.00,SW,220,2.0,3.0,-999,-99.99,,,-99.99,,2013-03-10 14:40:00,
2013-03-10 11:01:00,54.0,-99.9,-100.00,SW,220,2.0,3.0,-999,-99.99,,,-99.99,,2013-03-10 15:01:00,
2013-03-10 11:11:00,54.0,-99.9,-100.00,SW,220,2.0,3.0,-999,-99.99,,,-99.99,,2013-03-10 15:11:00,
2013-03-10 11:21:00,54.0,-99.9,-100.00,SW,220,2.0,3.0,-999,-99.99,,,-99.99,,2013-03-10 15:21:00,
2013-03-10 11:32:00,54.0,-99.9,-100.00,SW,220,2.0,3.0,-999,-99.99,,,-99.99,,2013-03-10 15:32:00,
2013-03-10 11:40:00,60.0,-99.9,-100.00,SE,130,2.0,17.0,-999,-99.99,,,-99.99,,2013-03-10 15:40:00,
2013-03-10 12:02:00,60.0,-99.9,-100.00,SE,130,2.0,17.0,-999,-99.99,,,-99.99,,2013-03-10 16:02:00,
2013-03-10 12:12:00,60.0,-99.9,-100.00,SE,130,2.0,17.0,-999,-99.99,,,-99.99,,2013-03-10 16:12:00,
2013-03-10 12:22:00,60.0,-99.9,-100.00,SE,130,2.0,17.0,-999,-99.99,,,-99.99,,2013-03-10 16:22:00,
2013-03-10 12:32:00,60.0,-99.9,-100.00,SE,130,2.0,17.0,-999,-99.99,,,-99.99,,2013-03-10 16:32:00,
2013-03-10 12:40:00,64.0,-99.9,-100.00,SE,140,5.0,17.0,-999,-99.99,,,-99.99,,2013-03-10 16:40:00,
2013-03-10 13:01:00,64.0,-99.9,-100.00,SE,140,5.0,17.0,-999,-99.99,,,-99.99,,2013-03-10 17:01:00,
2013-03-10 13:11:00,64.0,-99.9,-100.00,SE,140,5.0,17.0,-999,-99.99,,,-99.99,,2013-03-10 17:11:00,
2013-03-10 13:21:00,64.0,-99.9,-100.00,SE,140,5.0,17.0,-999,-99.99,,,-99.99,,2013-03-10 17:21:00,
2013-03-10 13:32:00,64.0,-99.9,-100.00,SE,140,5.0,17.0,-999,-99.99,,,-99.99,,2013-03-10 17:32:00,
2013-03-10 13:40:00,66.0,-99.9,-100.00,ESE,120,5.0,16.0,-999,-99.99,,,-99.99,,2013-03-10 17:40:00,
2013-03-10 14:01:00,66.0,-99.9,-100.00,ESE,120,5.0,16.0,-999,-99.99,,,-99.99,,2013-03-10 18:01:00,
2013-03-10 14:12:00,66.0,-99.9,-100.00,ESE,120,5.0,16.0,-999,-99.99,,,-99.99,,2013-03-10 18:12:00,
2013-03-10 14:22:00,66.0,-99.9,-100.00,ESE,120,5.0,16.0,-999,-99.99,,,-99.99,,2013-03-10 18:22:00,
2013-03-10 14:32:00,66.0,-99.9,-100.00,ESE,120,5.0,16.0,-999,-99.99,,,-99.99,,2013-03-10 18:32:00,
2013-03-10 14:40:00,68.0,-99.9,-100.00,SE,140,3.0,9.0,-999,-99.99,,,-99.99,,2013-03-10 18:40:00,
2013-03-10 15:02:00,68.0,-99.9,-100.00,SE,140,3.0,9.0,-999,-99.99,,,-99.99,,2013-03-10 19:02:00,
2013-03-10 15:12:00,68.0,-99.9,-100.00,SE,140,3.0,9.0,-999,-99.99,,,-99.99,,2013-03-10 19:12:00,
2013-03-10 15:22:00,68.0,-99.9,-100.00,SE,140,3.0,9.0,-999,-99.99,,,-99.99,,2013-03-10 19:22:00,
2013-03-10 15:32:00,68.0,-99.9,-100.00,SE,140,3.0,9.0,-999,-99.99,,,-99.99,,2013-03-10 19:32:00,
2013-03-10 15:40:00,69.0,-99.9,-100.00,SW,220,2.0,10.0,-999,-99.99,,,-99.99,,2013-03-10 19:40:00,
2013-03-10 16:02:00,69.0,-99.9,-100.00,SW,220,2.0,10.0,-999,-99.99,,,-99.99,,2013-03-10 20:02:00,
2013-03-10 16:13:00,69.0,-99.9,-100.00,SW,220,2.0,10.0,-999,-99.99,,,-99.99,,2013-03-10 20:13:00,
2013-03-10 16:22:00,69.0,-99.9,-100.00,SW,220,2.0,10.0,-999,-99.99,,,-99.99,,2013-03-10 20:22:00,
2013-03-10 16:33:00,69.0,-99.9,-100.00,SW,220,2.0,10.0,-999,-99.99,,,-99.99,,2013-03-10 20:33:00,
2013-03-10 16:40:00,70.0,-99.9,-100.00,SSE,150,5.0,10.0,-999,-99.99,,,-99.99,,2013-03-10 20:40:00,
2013-03-10 17:02:00,70.0,-99.9,-100.00,SSE,150,5.0,10.0,-999,-99.99,,,-99.99,,2013-03-10 21:02:00,
2013-03-10 17:12:00,70.0,-99.9,-100.00,SSE,150,5.0,10.0,-999,-99.99,,,-99.99,,2013-03-10 21:12:00,
2013-03-10 17:23:00,70.0,-99.9,-100.00,SSE,150,5.0,10.0,-999,-99.99,,,-99.99,,2013-03-10 21:23:00,
2013-03-10 17:33:00,70.0,-99.9,-100.00,SSE,150,5.0,10.0,-999,-99.99,,,-99.99,,2013-03-10 21:33:00,
2013-03-10 17:40:00,69.0,-99.9,-100.00,SE,140,2.0,14.0,-999,-99.99,,,-99.99,,2013-03-10 21:40:00,
2013-03-10 18:03:00,69.0,-99.9,-100.00,SE,140,2.0,14.0,-999,-99.99,,,-99.99,,2013-03-10 22:03:00,
2013-03-10 18:12:00,69.0,-99.9,-100.00,SE,140,2.0,14.0,-999,-99.99,,,-99.99,,2013-03-10 22:12:00,
2013-03-10 18:23:00,69.0,-99.9,-100.00,SE,140,2.0,14.0,-999,-99.99,,,-99.99,,2013-03-10 22:23:00,
2013-03-10 18:33:00,69.0,-99.9,-100.00,SE,140,2.0,14.0,-999,-99.99,,,-99.99,,2013-03-10 22:33:00,
2013-03-10 18:40:00,69.0,-99.9,-100.00,SE,130,7.0,14.0,-999,-99.99,,,-99.99,,2013-03-10 22:40:00,
2013-03-10 19:03:00,69.0,-99.9,-100.00,SE,130,7.0,14.0,-999,-99.99,,,-99.99,,2013-03-10 23:03:00,
2013-03-10 19:13:00,69.0,-99.9,-100.00,SE,130,7.0,14.0,-999,-99.99,,,-99.99,,2013-03-10 23:13:00,
2013-03-10 19:23:00,69.0,-99.9,-100.00,SE,130,7.0,14.0,-999,-99.99,,,-99.99,,2013-03-10 23:23:00,
2013-03-10 19:33:00,69.0,-99.9,-100.00,SE,130,7.0,14.0,-999,-99.99,,,-99.99,,2013-03-10 23:33:00,
2013-03-10 19:40:00,66.0,-99.9,-100.00,SE,140,1.0,9.0,-999,-99.99,,,-99.99,,2013-03-10 23:40:00,
2013-03-10 20:03:00,66.0,-99.9,-100.00,SE,140,1.0,9.0,-999,-99.99,,,-99.99,,2013-03-11 00:03:00,
2013-03-10 20:13:00,66.0,-99.9,-100.00,SE,140,1.0,9.0,-999,-99.99,,,-99.99,,2013-03-11 00:13:00,
2013-03-10 20:23:00,66.0,-99.9,-100.00,SE,140,1.0,9.0,-999,-99.99,,,-99.99,,2013-03-11 00:23:00,
2013-03-10 20:33:00,66.0,-99.9,-100.00,SE,140,1.0,9.0,-999,-99.99,,,-99.99,,2013-03-11 00:33:00,
2013-03-10 20:40:00,63.0,-99.9,-100.00,ESE,120,1.0,9.0,-999,-99.99,,,-99.99,,2013-03-11 00:40:00,
2013-03-10 21:03:00,63.0,-99.9,-100.00,ESE,120,1.0,9.0,-999,-99.99,,,-99.99,,2013-03-11 01:03:00,
2013-03-10 21:13:00,63.0,-99.9,-100.00,ESE,120,1.0,9.0,-999,-99.99,,,-99.99,,2013-03-11 01:13:00,
2013-03-10 21:23:00,63.0,-99.9,-100.00,ESE,120,1.0,9.0,-999,-99.99,,,-99.99,,2013-03-11 01:23:00,
2013-03-10 21:33:00,63.0,-99.9,-100.00,ESE,120,1.0,9.0,-999,-99.99,,,-99.99,,2013-03-11 01:33:00,
2013-03-10 21:40:00,62.0,-99.9,-100.00,SE,140,7.0,14.0,-999,-99.99,,,-99.99,,2013-03-11 01:40:00,
2013-03-10 22:03:00,62.0,-99.9,-100.00,SE,140,7.0,14.0,-999,-99.99,,,-99.99,,2013-03-11 02:03:00,
2013-03-10 22:13:00,62.0,-99.9,-100.00,SE,140,7.0,14.0,-999,-99.99,,,-99.99,,2013-03-11 02:13:00,
2013-03-10 22:23:00,62.0,-99.9,-100.00,SE,140,7.0,14.0,-999,-99.99,,,-99.99,,2013-03-11 02:23:00,
2013-03-10 22:32:00,62.0,-99.9,-100.00,SE,140,7.0,14.0,-999,-99.99,,,-99.99,,2013-03-11 02:32:00,
2013-03-10 22:40:00,61.0,-99.9,-100.00,SE,140,8.0,14.0,-999,-99.99,,,-99.99,,2013-03-11 02:40:00,
2013-03-10 23:02:00,61.0,-99.9,-100.00,SE,140,8.0,14.0,-999,-99.99,,,-99.99,,2013-03-11 03:02:00,
2013-03-10 23:12:00,61.0,-99.9,-100.00,SE,140,8.0,14.0,-999,-99.99,,,-99.99,,2013-03-11 03:12:00,
2013-03-10 23:22:00,61.0,-99.9,-100.00,SE,140,8.0,14.0,-999,-99.99,,,-99.99,,2013-03-11 03:22:00,
2013-03-10 23:32:00,61.0,-99.9,-100.00,SE,140,8.0,14.0,-999,-99.99,,,-99.99,,2013-03-11 03:32:00,
2013-03-10 23:40:00,59.0,-99.9,-100.00,SE,140,3.0,11.0,-999,-99.99,,,-99.99,,2013-03-11 03:40:00,